Terug naar catalogus

COSMOS 970 DEB

ActiefLEO
NORAD 64988·DEBRIS·🇷🇺 Russia

Gelanceerd Dec 21, 1977 vanaf Baikonur Cosmodrome

Loading…

Volgende Passages (komende 24 uur)

TLE

VerouderendSource: Space-Track

Epoch: Sep 10, 2026, 08:19 UTC

1 64988U 77121CZ  26253.34689881  .00000127  00000-0  23955-3 0  9995
2 64988  65.8552 204.4784 0100939 107.0383 333.9156 13.66455398150490

Volg COSMOS 970 DEB in realtime met AllMySat

Download on the App Store